Lapse_Rate
-3.2 -3.5 -4.1 -4.6 -4.8 -5.1 -5.0 -5.2 -5.4 -5.8 -5.9 -5.7 -5.7 -6.0 -5.9 -6.1 -6.3 -4.9 1.0 3.7 3.5 2.9 3.1 3.5 4.8 5.1 2.7 3.6 5.7 5.0 6.5 6.5 6.5 6.5 6.5 6.3 6.5 7.4 7.6 7.2 7.7 7.7 7.3 7.0 6.9
-3.0 -3.4 -3.9 -4.4 -4.7 -5.1 -5.3 -5.5 -5.7 -6.0 -6.4 -6.2 -6.2 -6.4 -6.5 -6.6 -3.8 0.3 3.4 3.2 4.8 2.9 5.6 4.1 4.4 5.8 4.0 4.7 5.4 6.2 6.6 6.5 6.3 6.4 6.5 6.4 6.6 6.9 6.9 6.8 6.9 7.1 6.8 7.3 7.1
-3.2 -3.5 -3.8 -4.2 -4.6 -5.0 -5.3 -5.5 -5.8 -6.2 -6.9 -7.0 -6.6 -6.6 -6.8 -7.0 0.4 3.6 3.2 0.8 3.5 2.6 6.2 3.8 3.0 3.3 4.6 5.1 6.5 6.5 6.5 6.4 6.4 6.3 6.3 5.9 6.6 7.2 6.6 6.5 6.4 6.3 6.9 7.8 7.3
-2.8 -3.5 -4.1 -4.2 -4.6 -5.1 -5.5 -5.7 -6.1 -6.5 -7.1 -7.3 -6.9 -6.8 -6.9 -5.1 6.5 4.3 0.8 0.5 1.8 4.6 4.9 2.8 2.6 4.3 6.3 6.5 7.0 6.5 6.5 6.2 6.2 6.2 6.4 6.4 7.1 6.7 6.7 6.7 6.9 5.8 7.2 7.4 6.4
-3.0 -3.4 -3.9 -4.6 -4.8 -5.1 -5.5 -6.0 -6.4 -6.9 -7.2 -7.3 -7.0 -6.8 -4.6 2.6 3.6 1.8 -0.4 0.1 2.3 3.7 4.9 3.0 2.8 5.0 6.4 6.4 6.4 6.6 6.4 6.0 5.8 6.0 6.0 6.5 6.4 6.5 6.8 7.2 7.7 7.0 7.4 6.3 5.7
-3.2 -3.7 -4.0 -4.4 -4.9 -5.3 -5.5 -6.2 -6.6 -7.1 -7.1 -7.2 -6.9 -6.5 -0.5 5.8 2.3 0.1 -0.1 0.6 2.2 2.8 3.4 3.0 3.9 3.4 6.0 6.3 6.4 5.0 6.0 4.9 5.8 5.8 6.6 6.5 6.5 6.5 6.9 7.2 7.1 7.1 6.5 6.7 7.2
-3.1 -3.6 -4.1 -4.6 -5.1 -5.5 -6.1 -6.7 -6.8 -6.9 -6.8 -6.8 -6.5 -3.4 0.5 2.6 2.0 0.6 0.1 -0.0 1.4 2.6 2.4 2.1 3.9 5.5 5.4 6.5 6.7 5.9 6.6 6.5 6.3 5.7 6.4 6.4 6.5 6.5 6.8 7.0 6.8 6.8 6.3 6.4 6.2
-3.2 -3.7 -4.1 -4.6 -5.3 -6.0 -6.5 -7.0 -7.2 -6.8 -6.3 -5.9 -5.8 -1.5 1.7 4.3 1.6 1.5 0.5 1.5 2.3 3.4 3.2 1.8 2.8 4.1 6.6 5.2 6.4 6.5 6.5 6.5 6.5 6.3 6.0 5.9 6.5 6.5 6.5 6.7 6.3 6.6 6.7 6.5 5.2
-3.4 -3.9 -4.4 -4.9 -5.4 -6.5 -7.2 -7.5 -6.8 -5.5 -5.2 -4.2 -2.2 1.3 3.3 2.9 2.6 2.1 1.6 3.4 1.6 2.4 2.8 6.2 3.6 5.2 6.2 6.5 6.5 6.5 6.5 6.5 6.5 6.3 6.5 6.5 6.5 6.4 6.6 6.1 6.3 6.5 6.2 5.3 5.2
-3.6 -4.1 -4.8 -5.3 -5.7 -7.0 -7.6 -7.4 -6.2 -3.9 -3.7 -0.1 3.9 4.9 3.2 5.8 4.6 4.1 2.9 3.6 4.5 2.6 5.4 6.1 6.1 6.5 6.5 6.5 6.5 6.6 6.5 6.5 6.5 6.5 6.5 6.4 6.5 6.4 6.5 6.4 6.2 5.6 5.2 5.2 5.0
-3.7 -4.3 -5.1 -5.8 -6.0 -7.1 -8.5 -2.1 1.9 3.3 3.9 4.8 3.0 3.1 4.5 6.1 7.2 6.3 5.2 5.3 5.8 6.0 6.5 5.1 6.5 6.5 6.4 6.5 6.6 6.5 6.5 6.5 6.5 6.5 6.5 6.5 6.5 6.5 6.3 6.4 6.2 4.8 5.0 4.9 4.9
-4.0 -4.4 -5.2 -6.1 -6.9 -7.4 -8.1 2.8 4.4 5.7 4.4 3.8 4.6 4.8 5.0 5.1 6.5 4.9 5.3 5.0 5.4 6.5 6.2 6.6 6.5 6.5 6.5 6.5 6.5 6.5 6.4 6.5 6.5 6.5 6.5 6.5 6.5 6.5 6.2 6.2 6.0 6.1 5.2 5.4 5.1
-4.1 -4.6 -5.3 -6.8 -7.4 -5.4 1.1 3.8 3.3 4.5 4.4 3.9 3.7 4.3 4.4 3.9 5.5 4.3 4.3 4.2 5.8 6.5 6.5 6.5 6.5 6.4 6.5 6.5 6.5 6.5 6.5 6.5 6.5 6.5 6.5 6.5 6.5 6.5 6.4 6.1 6.2 6.3 5.3 5.4 5.1
-4.2 -4.6 -5.5 -8.4 -0.8 -2.3 2.0 3.1 2.5 3.8 6.5 6.4 5.7 4.5 5.4 5.8 5.7 4.7 4.8 5.2 6.3 6.5 6.5 6.5 6.1 6.5 6.5 6.5 6.6 6.5 6.5 6.5 6.5 6.5 6.5 6.5 6.5 6.5 6.5 6.5 6.4 6.1 6.0 6.2 5.5
-4.3 -4.5 -5.7 -7.0 -4.9 -0.1 5.3 1.8 1.9 2.1 6.5 6.5 5.9 4.2 3.9 4.9 4.8 6.0 5.1 5.6 6.5 6.5 6.5 6.4 6.5 6.5 6.5 6.5 6.5 6.5 6.4 6.5 6.5 6.5 6.5 6.5 6.5 6.5 6.5 6.5 6.5 6.2 6.3 6.2 5.9
-4.5 -5.0 -6.5 -5.2 -6.1 -1.9 0.5 -0.1 1.9 6.4 6.5 6.4 5.9 6.5 6.3 5.6 5.4 5.0 5.7 4.9 4.7 6.5 6.5 6.5 5.1 6.4 6.5 6.5 6.5 6.5 6.5 6.4 6.5 6.5 6.5 6.6 6.5 6.5 6.5 6.5 6.6 6.3 6.5 6.5 6.3
-5.1 -5.7 -7.3 -3.4 1.4 1.8 0.3 0.7 6.5 6.5 6.5 6.5 6.5 6.5 6.5 6.5 6.5 6.5 6.5 6.4 6.5 6.5 6.5 6.4 6.5 6.3 6.1 6.6 6.5 6.5 6.5 6.5 6.5 6.5 6.5 6.5 6.5 6.5 6.5 6.5 6.4 6.4 6.3 6.4 6.2
-5.9 -7.0 -6.0 -4.2 -1.7 0.6 0.2 5.8 6.5 6.5 6.5 6.5 6.5 6.5 6.5 6.5 6.5 6.5 6.5 6.5 6.5 6.5 6.5 6.5 6.5 6.5 6.4 6.5 6.5 6.5 6.5 6.5 6.5 6.5 6.5 6.6 6.5 6.5 6.5 6.3 6.3 6.4 6.2 6.5 6.4
-6.4 -4.3 -1.7 -0.3 -0.9 0.1 1.4 6.6 6.5 6.5 6.5 6.5 6.5 6.5 6.5 6.5 6.5 6.5 6.5 6.5 6.5 6.5 6.6 6.5 6.5 6.5 6.5 6.5 6.5 6.5 6.5 6.5 6.5 6.6 6.4 6.5 6.5 6.5 6.5 6.5 6.2 6.1 6.0 6.2 6.4
-7.5 -3.4 -0.1 4.2 2.7 1.0 5.1 6.5 6.5 6.2 6.4 6.5 6.6 6.5 6.5 6.5 6.5 6.5 6.5 6.5 6.5 6.3 6.0 6.5 6.5 6.5 6.5 6.3 6.3 6.5 6.5 6.5 6.5 6.5 6.5 6.5 6.5 6.5 6.5 6.5 6.5 6.4 6.0 5.6 5.8
-3.4 1.5 2.9 3.8 1.8 0.9 6.5 6.5 6.5 4.5 5.1 6.4 6.5 6.5 6.6 6.5 6.6 6.5 6.5 6.5 6.6 6.5 5.8 6.5 6.6 6.5 6.5 6.5 6.5 6.5 6.5 6.5 6.5 6.4 6.5 6.5 6.5 6.5 6.5 6.5 6.5 6.4 6.0 4.6 5.0
-3.2 5.5 3.0 2.7 3.5 3.3 6.5 6.5 4.4 5.9 3.8 6.3 6.4 6.5 6.5 6.5 6.5 6.5 6.5 6.5 5.1 5.7 6.5 6.4 6.5 6.4 6.5 6.5 6.5 6.5 6.5 6.5 6.5 6.5 6.5 6.4 6.5 6.5 6.5 6.5 6.0 6.0 5.5 2.2 3.1
-0.7 0.4 2.0 2.7 6.5 6.6 5.4 6.5 5.9 6.4 6.5 6.5 6.5 6.5 6.4 6.6 6.5 6.5 6.5 5.9 5.4 6.3 6.5 6.4 6.5 6.5 6.5 6.5 6.5 6.5 6.5 6.5 6.5 6.5 6.4 6.5 6.5 6.5 6.7 6.5 4.5 5.3 1.9 2.0 2.0
0.3 6.6 1.6 1.2 2.5 6.4 6.5 6.4 6.5 5.9 5.9 5.8 6.5 5.9 6.6 6.5 6.5 6.4 6.5 6.5 6.2 5.9 3.7 4.9 6.5 6.5 6.5 6.5 6.6 6.5 6.5 6.5 6.5 6.5 6.5 6.4 6.5 6.4 6.5 6.5 6.3 4.0 2.7 1.8 1.3
1.9 4.8 5.7 6.4 5.6 5.5 6.2 6.5 6.5 6.4 5.3 4.6 6.4 6.5 6.5 6.5 6.5 6.5 6.5 6.5 6.5 5.4 5.3 6.5 6.5 6.5 6.5 6.5 6.5 6.5 6.5 6.5 6.5 6.5 6.5 6.5 6.6 6.5 6.5 6.5 5.2 2.8 4.1 3.0 0.5
3.4 3.8 3.2 3.7 3.4 5.8 6.2 6.5 6.5 6.5 6.4 6.5 6.5 6.5 6.5 6.5 6.5 6.5 6.4 6.5 6.4 6.3 6.5 6.5 6.5 6.5 6.5 6.5 6.5 6.5 6.5 6.5 6.5 6.5 6.5 6.5 6.5 6.5 4.7 3.5 5.2 2.0 5.0 5.4 3.4
1.8 2.6 3.8 3.4 5.0 6.5 6.5 6.6 6.5 6.5 6.2 6.7 6.5 6.5 6.5 6.5 6.7 6.2 4.5 4.2 5.1 6.4 6.4 6.5 6.5 6.5 6.5 6.5 6.5 6.5 6.6 6.5 6.5 6.5 6.4 6.5 6.5 6.4 6.5 6.4 4.5 3.6 4.4 5.2 3.5
Wind_Speed
19 19 19 19 19 18 17 15 15 16 14 13 12 13 11 11 16 3 5 7 7 24 19 13 5 10 9 3 2 4 3 3 5 7 4 9 16 16 12 15 15 4 13 16 16
20 20 20 20 20 20 18 17 16 16 17 14 12 12 11 10 3 7 4 11 18 25 17 20 8 9 4 3 3 1 1 5 5 6 6 8 12 17 13 15 12 13 14 16 18
22 22 20 20 21 21 19 18 17 17 17 16 13 12 11 7 2 6 7 18 25 28 7 5 9 8 5 4 5 5 5 6 11 9 9 7 13 19 19 14 19 21 21 19 19
21 23 24 21 21 21 21 20 18 17 16 16 13 12 12 2 1 3 14 17 15 12 12 11 5 3 5 7 7 4 14 5 8 7 9 12 18 13 16 11 19 21 21 18 18
22 22 23 24 23 22 22 21 19 16 15 13 13 10 1 3 6 7 11 5 2 3 3 5 4 5 3 5 4 9 2 6 7 9 6 14 13 11 14 16 17 18 18 19 18
25 24 23 23 25 24 23 22 19 17 12 10 11 8 1 4 2 17 13 6 5 2 4 3 5 6 3 4 4 5 3 3 5 8 8 17 15 9 12 16 15 13 11 13 18
26 26 26 26 25 25 25 24 21 17 11 8 7 3 1 10 7 16 15 10 6 9 6 5 5 3 4 6 2 2 6 4 5 2 4 15 7 14 15 16 15 13 11 11 13
27 27 27 28 28 27 27 27 23 17 10 7 6 2 7 2 20 14 11 4 7 8 9 9 4 2 3 7 4 3 5 3 3 4 2 5 6 12 16 16 14 14 12 10 8
28 28 28 28 29 29 30 30 22 11 6 10 4 3 9 12 11 15 16 12 19 13 12 7 3 4 1 2 4 5 3 4 3 4 3 4 6 15 17 15 15 13 12 7 9
30 30 30 30 29 29 32 23 8 5 5 6 4 2 5 7 7 10 16 17 8 17 13 11 5 9 0 4 6 6 5 5 8 4 3 6 7 19 18 16 15 11 9 12 12
31 32 32 33 31 25 14 3 5 5 0 7 7 5 5 3 2 6 11 8 9 3 6 3 4 7 14 14 12 12 9 11 10 9 6 10 10 17 16 14 13 10 11 13 13
32 32 34 36 35 28 2 2 5 5 8 11 12 12 14 4 5 12 7 7 5 8 4 6 7 16 10 16 10 17 15 18 8 9 4 6 13 13 15 16 13 16 16 17 13
32 32 34 38 41 0 3 5 9 4 2 9 10 10 8 11 10 14 9 10 8 7 7 6 15 13 11 15 5 13 20 17 12 6 1 7 5 5 10 13 13 15 19 18 20
33 32 31 40 4 6 6 8 12 2 4 8 4 8 7 8 6 9 10 8 2 9 7 8 9 8 15 11 3 10 4 9 14 6 7 7 5 10 15 16 16 17 16 18 20
34 31 27 11 5 4 6 14 10 5 3 3 4 1 6 11 6 6 6 4 8 10 4 12 9 12 9 9 2 13 7 2 10 10 5 12 2 6 11 14 19 21 20 21 21
36 30 22 4 2 8 14 10 5 5 4 8 4 3 7 2 5 4 4 3 3 5 4 9 5 4 9 14 4 9 7 5 6 4 2 9 10 4 15 26 23 23 23 23 21
38 33 9 4 4 6 7 5 5 3 7 9 6 8 3 7 5 7 8 7 6 1 6 8 8 6 4 7 14 3 6 3 4 4 6 4 4 12 26 23 27 28 24 24 22
40 34 7 6 13 5 4 5 2 4 2 5 6 9 6 8 6 5 2 10 7 8 5 8 12 6 7 8 11 10 8 6 5 2 7 5 5 7 18 25 26 25 24 22 21
33 3 2 5 10 3 5 4 6 3 3 8 10 6 6 5 3 9 5 4 5 4 9 7 9 8 6 10 9 12 5 9 5 1 2 5 11 7 6 20 20 20 17 20 22
3 4 4 7 12 5 5 3 4 3 6 4 3 3 5 8 7 6 3 1 9 10 1 6 6 8 15 3 5 8 5 3 3 2 4 6 6 6 6 12 16 17 19 18 22
2 4 4 4 5 5 3 6 6 9 5 3 3 3 4 3 3 4 4 7 13 10 11 2 4 8 3 5 9 5 3 1 3 5 5 4 6 6 7 9 18 20 21 17 19
3 3 4 4 4 1 1 4 5 8 8 5 2 4 3 5 3 2 1 3 11 5 9 4 1 3 10 11 7 7 9 8 7 8 4 5 10 6 10 16 17 19 17 11 17
2 3 5 6 4 4 7 6 5 10 8 7 7 4 2 4 6 4 1 5 6 8 5 5 3 6 12 8 5 1 5 7 3 3 7 5 7 4 4 7 11 17 12 14 15
2 4 5 5 2 3 6 6 9 8 7 6 4 5 7 7 2 6 7 8 12 9 7 1 0 6 6 9 5 7 7 4 3 3 9 9 10 9 8 4 6 11 16 15 14
4 2 1 5 4 6 3 3 8 10 8 9 8 11 6 6 9 6 7 13 14 7 9 3 3 2 8 9 5 6 10 9 4 6 5 11 11 10 10 9 13 14 15 12 11
3 3 4 3 5 7 5 6 9 16 6 8 9 12 7 2 3 10 7 9 6 5 8 5 5 6 6 5 8 13 14 13 6 5 6 7 14 8 8 7 8 9 9 18 17
4 4 3 6 6 3 0 6 12 13 7 8 12 9 10 12 19 15 8 9 9 6 3 3 3 5 6 7 6 8 7 3 7 6 6 5 11 16 7 10 10 13 13 13 17
Wind_Direction
1 357 350 347 343 342 343 344 338 328 326 329 325 322 332 331 306 184 224 189 179 177 153 142 68 87 70 61 252 110 70 277 167 106 127 95 121 148 125 133 154 195 140 150 142
358 355 351 346 342 338 337 337 334 327 324 326 322 319 328 337 271 263 252 163 161 178 145 144 142 129 77 114 274 332 28 244 163 144 137 130 120 136 133 147 124 111 127 148 142
350 349 348 344 339 335 332 330 329 324 323 320 320 319 321 320 195 230 219 187 164 172 134 148 139 128 142 155 194 209 245 124 137 161 135 148 116 134 125 143 146 146 153 151 150
350 344 340 341 336 331 326 324 323 320 321 316 317 320 319 207 170 206 190 202 164 169 157 145 103 68 136 185 196 229 245 156 170 150 147 166 130 149 142 156 150 156 157 157 165
347 343 339 335 333 328 322 319 317 317 317 312 312 325 279 341 253 147 170 179 206 149 182 131 100 127 226 212 202 232 95 127 148 138 143 127 144 130 133 146 147 162 163 170 176
343 341 337 334 330 327 322 316 313 310 309 304 302 322 333 308 132 152 146 148 244 136 251 167 144 202 270 254 156 164 57 72 146 118 111 115 122 115 149 146 158 170 187 177 181
342 338 336 332 329 325 321 313 308 303 298 285 276 272 19 238 171 161 163 178 204 187 213 237 147 44 325 301 115 331 75 25 124 108 81 110 106 142 156 157 166 187 202 194 189
340 337 334 330 328 324 318 312 306 297 279 254 215 232 252 206 148 155 184 220 226 214 209 256 171 312 189 311 37 45 67 69 278 159 239 111 194 157 166 165 178 193 206 203 180
339 335 332 329 326 323 317 310 302 289 174 141 128 189 270 104 159 196 174 195 198 219 242 262 62 216 297 156 30 12 214 202 213 253 150 121 135 180 176 174 184 200 206 176 159
337 334 331 327 326 323 319 303 277 322 162 186 257 317 272 227 195 188 201 220 183 200 227 216 246 235 59 95 208 205 243 233 191 209 254 139 176 172 183 180 189 198 183 170 170
336 333 330 326 325 324 336 19 13 18 197 199 198 234 282 282 357 231 206 203 244 335 276 269 198 224 238 213 210 197 216 228 220 186 158 194 166 181 192 192 188 192 177 183 185
334 332 329 326 322 325 174 18 227 217 300 234 229 229 256 91 308 273 151 176 190 233 273 337 267 271 286 292 211 186 218 247 291 138 142 206 193 191 192 198 195 184 182 189 190
332 331 330 326 319 310 226 226 285 327 270 282 213 216 211 150 218 258 152 192 192 225 237 202 259 300 285 309 321 198 204 234 223 128 244 122 326 205 214 200 203 201 190 187 186
330 329 333 328 4 330 294 288 327 113 39 278 253 250 180 155 257 226 187 182 154 215 248 237 271 285 307 299 327 318 265 174 188 122 199 169 229 217 213 206 205 205 199 194 193
326 328 331 326 296 323 263 323 320 55 3 252 231 242 166 159 160 250 208 159 209 255 127 267 275 282 290 272 334 275 292 177 174 176 126 202 115 255 192 212 208 208 207 203 195
323 323 331 114 222 242 305 301 46 44 265 346 6 315 103 193 241 264 210 98 190 216 238 236 247 230 251 287 232 271 303 9 54 136 349 193 203 253 193 209 204 209 209 204 198
321 315 303 267 240 325 333 32 48 136 330 345 329 330 263 194 253 181 219 239 200 219 286 297 266 264 230 310 301 71 48 340 346 8 227 240 129 235 209 205 199 201 205 205 197
323 314 199 218 251 345 34 53 115 265 1 299 333 337 36 17 345 325 186 223 228 180 212 228 275 247 252 195 247 272 161 162 218 251 268 285 245 273 206 199 203 200 199 199 196
323 339 268 259 217 109 67 74 208 258 334 340 331 16 340 23 321 31 348 237 304 188 199 173 259 270 215 238 145 279 243 192 139 149 41 271 300 300 207 193 198 201 196 194 198
343 341 281 257 135 63 71 251 266 267 315 356 3 5 328 324 37 19 318 163 355 37 82 279 262 226 255 141 252 160 218 246 354 196 249 287 279 246 164 193 196 197 198 195 200
21 30 258 145 75 51 137 237 282 281 260 235 283 306 309 6 354 358 303 311 24 337 345 254 184 275 336 178 222 295 282 159 134 142 183 261 264 221 238 186 196 198 199 192 195
359 41 300 55 44 32 170 243 270 337 358 357 67 32 34 318 322 306 355 269 347 354 335 303 241 331 252 272 215 180 215 209 215 264 235 179 263 236 243 217 186 190 192 185 182
46 275 324 75 61 338 310 305 1 7 334 2 350 46 345 2 348 306 301 302 347 360 347 314 338 341 341 350 24 307 239 201 193 95 202 194 259 300 344 194 197 174 181 177 179
43 13 335 34 96 31 346 316 330 318 315 334 291 354 359 335 255 280 322 2 7 331 353 205 205 167 209 234 259 298 298 254 182 129 230 218 247 281 292 240 229 186 184 183 174
34 6 351 327 330 337 342 311 345 355 7 17 360 24 34 329 336 20 338 336 342 1 2 42 264 279 273 257 279 272 295 302 207 211 176 269 209 233 220 211 233 193 184 175 179
59 30 344 276 296 342 353 357 354 337 343 341 2 342 354 308 261 306 316 328 255 351 345 332 281 346 290 321 331 310 298 291 240 269 273 256 258 196 210 157 168 172 200 190 192
328 335 83 299 339 19 318 334 338 6 310 358 331 334 333 336 320 300 243 243 243 272 295 255 28 350 274 351 329 316 263 346 298 263 222 287 287 294 251 207 189 161 168 211 201